Home   Weather   Tehran   Past weeks

Flag for Iran Past Weather in Tehran, Iran — Yesterday and Last 2 Weeks

Now
36 °F

Clear.


Feels Like: 36 °F
Forecast: 26 / 49 °F
Wind: No wind

Location: Tehran-Mehrabad

Current Time: Feb 21, 2017 at 2:29:54 am

Latest Report: Feb 21, 2017 at 2:00 am


Visibility: 10 mi

Pressure: 30.15 "Hg (26.04 "Hg at 1179m altitude)

Humidity: 44%

Dew Point: 16 °F

Location of TehranLocation

Past Weather in Tehran — Graph

°F

Tehran Temperature Yesterday

Maximum temperature yesterday: 46 °F (at 2:00 pm)
Minimum temperature yesterday: 30 °F (at 4:00 am)
Average temperature yesterday: 38 °F

High & Low Weather Summary for the Past Weeks

 TemperatureHumidityPressure
High55 °F (Feb 16, 1:30 pm)93% (Feb 10, 3:30 am)30.45 "Hg (Feb 10, 3:30 am)
Low25 °F (Feb 19, 5:00 am)24% (Feb 6, 2:00 pm)29.77 "Hg (Feb 17, 4:00 pm)
Average41 °F54%30.08 "Hg
* Reported Feb 6 1:30 am — Feb 21 1:30 am, Tehran, Weather by CustomWeather, © 2017

Note: Actual official high and low records may vary slightly from our data, if they occured in-between our weather recording intervals... More about our weather records

Advertising

Tehran Weather History for the Previous 24 Hours

Scroll right to see more
 ConditionsComfort  
Time TempWeatherWind HumidityBarometerVisibility
1:30 am
Tue, Feb 21
36 °FClear.No wind44%30.15 "Hg10 mi
1:00 am36 °FClear.5 mph44%30.15 "Hg10 mi
12:30 am34 °FClear.5 mph48%30.15 "Hg10 mi
12:00 am36 °FClear.No wind44%30.18 "Hg4 mi
11:30 pm
Mon, Feb 20
36 °FClear.No wind41%30.18 "Hg4 mi
11:00 pm37 °FClear.No wind38%30.18 "Hg4 mi
10:30 pm39 °FClear.5 mph33%30.21 "Hg4 mi
10:00 pm39 °FHaze.5 mph33%30.21 "Hg3 mi
9:30 pm39 °FHaze.No wind33%30.21 "Hg3 mi
9:00 pm39 °FHaze.No wind33%30.21 "Hg3 mi
8:30 pm41 °FHaze.5 mph33%30.21 "Hg3 mi
8:00 pm41 °FHaze.5 mph36%30.21 "Hg3 mi
7:30 pm41 °FHaze.5 mph33%30.21 "Hg2 mi
6:30 pm43 °FHaze.5 mph34%30.21 "Hg2 mi
6:00 pm45 °FHaze.7 mph31%30.21 "Hg2 mi
5:30 pm45 °FHaze.7 mph31%30.21 "Hg2 mi
5:00 pm46 °FHaze.7 mph29%30.21 "Hg2 mi
4:30 pm46 °FHaze.7 mph29%30.21 "Hg2 mi
4:00 pm46 °FHaze.5 mph29%30.21 "Hg2 mi
3:30 pm46 °FHaze.7 mph29%30.21 "Hg2 mi
3:00 pm46 °FHaze.7 mph29%30.24 "Hg2 mi
2:30 pm46 °FHaze.7 mph29%30.24 "Hg2 mi
2:00 pm46 °FHaze.5 mph29%30.27 "Hg2 mi
1:30 pm45 °FHaze.5 mph31%30.27 "Hg3 mi
1:00 pm45 °FHaze.5 mph31%30.30 "Hg3 mi
12:30 pm43 °FHaze.7 mph31%30.30 "Hg3 mi
12:00 pm43 °FClear.5 mph31%30.30 "Hg4 mi
11:30 am41 °FClear.5 mph33%30.33 "Hg4 mi
11:00 am41 °FClear.5 mph33%30.33 "Hg5 mi
10:30 am39 °FClear.5 mph36%30.36 "Hg5 mi
10:00 am37 °FClear.5 mph35%30.36 "Hg5 mi
9:30 am37 °FClear.5 mph35%30.36 "Hg5 mi
9:00 am37 °FClear.5 mph33%30.36 "Hg5 mi
8:30 am36 °FClear.5 mph35%30.36 "Hg5 mi
8:00 am36 °FClear.7 mph35%30.36 "Hg5 mi
7:30 am32 °FClear.5 mph44%30.36 "Hg5 mi
7:00 am32 °FClear.5 mph44%30.36 "Hg10 mi
6:30 am30 °FClear.5 mph47%30.33 "Hg10 mi
6:00 am30 °FClear.5 mph51%30.33 "Hg10 mi
5:30 am30 °FClear.5 mph51%30.33 "Hg10 mi
5:00 am30 °FClear.5 mph51%30.33 "Hg10 mi
4:30 am30 °FClear.No wind51%30.33 "Hg10 mi
4:00 am30 °FClear.No wind51%30.33 "Hg10 mi
3:30 am32 °FClear.5 mph51%30.33 "Hg10 mi
3:00 am32 °FClear.No wind51%30.33 "Hg10 mi
2:30 am32 °FClear.No wind51%30.36 "Hg10 mi
2:00 am32 °FClear.5 mph47%30.36 "Hg10 mi
Weather by CustomWeather, © 2017

See weather overviewHow to use our weather pages